Other Public Products
Issued by NWS Charleston, SC

Current Version | Previous Version | Graphics & Text | Print | Product List | Glossary On
Versions: 1 2 3 4 5 6 7 8 9 10 11 12 13 14 15 16 17 18 19 20 21 22 23 24 25 26 27 28 29 30 31 32 33 34 35 36 37 38 39 40 41 42 43 44 45 46 47 48 49 50
000
FPUS82 KCHS 250311
OPUCHS

TEST...KCHS/KSAV Gateway Observations...TEST
National Weather Service Charleston SC
1000 PM EST FRI FEB 24 2017

NOTE: "fair" indicates few or no clouds below 12,000 feet with no
significant weather and/or obstructions to visibility.

SCZ050-WAZ558-NCZ071-TXZ119-213-PAZ071-DCZ001-FLZ074-172-MI076-
NYZ176-178-MAZ016-IL014-TNZ027-NJZ106-GAZ044-MD014-250400-
...Gateway Observations for Charleston International...

CITY           SKY/WX    TMP DP  RH WIND       PRES   REMARKS
Chas Airport   CLEAR     63  59  87 CALM      29.85S
Seattle        MOCLDY    40  30  67 NW6       30.18R WCI  36
Charlotte      PTCLDY    62  51  67 S7        29.82S
Dallas DFW     CLEAR     53  31  42 N12       30.02R
Dallas Love    CLEAR     55  28  35 N12       30.03R
Philladelphia  PTCLDY    60  56  86 S9        29.85R
Wash National  MOCLDY    61  58  90 S9        29.80F
Baltimore      CLOUDY    61  60  97 VRB3      29.80F
Miami          MOCLDY    73  67  81 CALM      29.86R
Detroit        CLOUDY    61  53  75 S12       29.41F
Newark         PTCLDY    61  56  83 S7        29.85S
Laguardia      PTCLDY    58  54  86 S9        29.86S
J F K          FOG       50  50 100 S13       29.88S VSB 1/4
Boston Logan   PTCLDY    54  52  93 S10       29.88F
Ft. Lauderdale MOCLDY    74  67  78 N3        29.85R
Chicago O`Hare CLOUDY    37  33  85 W14       29.57R WCI  28
Chicago Midway CLOUDY    39  33  79 W9        29.58R WCI  33
Houston Bush   CLEAR     64  44  48 NW13      29.92R
Houston Hobby  CLEAR     67  42  40 NW21      29.90R
Nashville      CLOUDY    68  52  56 W6        29.67F THUNDER
Atlanta        MOCLDY    68  54  60 S6        29.80S

$$

GAZ044-118-TXZ119-213-NCZ071-DCZ001-MDZ014-506-PAZ021-071-NJZ106-
NYZ176-178-MAZ106-OHZ011-021-055-MIZ076-KYZ091-ILZ014-INZ047-
MNZ060-ONZ431-250400-
...Gateway Observations for Savannah International...

CITY           SKY/WX    TMP DP  RH WIND       PRES   REMARKS
Savannah Arpt  CLEAR     63  59  87 SE5       29.86R
Atlanta        MOCLDY    68  54  60 S6        29.80S
Charlotte      PTCLDY    62  51  67 S7        29.82S
Dallas DFW     CLEAR     53  31  42 N12       30.02R
Houston Bush   CLEAR     64  44  48 NW13      29.92R
Wash National  MOCLDY    61  58  90 S9        29.80F
Wash Dulles    CLOUDY    64  55  72 SE12      29.77F
Baltimore      CLOUDY    61  60  97 VRB3      29.80F
Philadelphia   PTCLDY    60  56  86 S9        29.85R
Newark         PTCLDY    61  56  83 S7        29.85S
Laguardia      PTCLDY    58  54  86 S9        29.86S
J F K          FOG       50  50 100 S13       29.88S VSB 1/4
Boston         PTCLDY    54  52  93 S10       29.88F
Pittsburg      PTCLDY    61  47  59 SE5       29.60S
Akron          MOCLDY    64  48  56 SE12      29.54F
Cleveland      TSTM      64  48  56 W16       29.55R
Cincinnati     CLOUDY    61  57  87 SW10      29.57S
Columbus       CLOUDY    66  50  57 S8        29.52F
Detroit        CLOUDY    61  53  75 S12       29.41F
Chicago O`Hare CLOUDY    37  33  85 W14       29.57R WCI  28
Minneapolis    MOCLDY    23   9  55 N18G24    29.89R WCI   9
Indianapolis   CLOUDY    48  42  80 W15       29.64S
Toronto Canada FOG       37  37 100 E8        29.57F VSB 1/2 WCI  31

$$




USA.gov is the U.S. government's official web portal to all federal, state and local government web resources and services.